Regional Weather Roundup
Issued by NWS Cleveland, OH

Home | Current Version | Previous Version | Graphics & Text | Print | Product List | Glossary On
Versions: 1 2 3 4 5 6 7 8 9 10 11 12 13 14 15 16 17 18 19 20 21 22 23 24 25 26 27 28 29 30 31 32 33 34 35 36 37 38 39 40 41 42 43 44 45 46 47 48 49 50
000
ASUS41 KCLE 180200
RWRCLE
OHIO REGIONAL WEATHER ROUNDUP
NATIONAL WEATHER SERVICE WILMINGTON, OH
1000 PM EDT WED SEP 17 2014

NOTE: "FAIR" INDICATES FEW OR NO CLOUDS BELOW 12,000 FEET WITH NO
SIGNIFICANT WEATHER AND/OR OBSTRUCTIONS TO VISIBILITY.

OHZ001>008-015>018-024>027-034-035-043-044-180300-
   NORTHWEST OHIO

CITY           SKY/WX    TMP DP  RH WIND       PRES   REMARKS
DEFIANCE       CLEAR     53  48  83 CALM      30.00R
FINDLAY        CLEAR     55  48  77 CALM      29.99S
TOLEDO EXPRESS CLOUDY    54  51  90 CALM      30.00R
TOLEDO METCALF CLOUDY    62  46  55 CALM      30.00R
LIMA           CLEAR     54  49  83 CALM      30.00R
$$

OHZ009>014-019>023-028>033-038-089-180300-
   NORTHEAST OHIO

CITY           SKY/WX    TMP DP  RH WIND       PRES   REMARKS
CLE-HOPKINS    PTCLDY    54  49  83 SE5       30.02R
CLE-LAKEFRONT  CLEAR     62  46  55 W8        29.99R
CUY CO. ARPT   PTCLDY    54  52  94 CALM      30.01S
LORAIN-ELYRIA  PTCLDY    54  49  83 CALM      30.01R
ASHTABULA      PTCLDY    50  48  93 CALM      30.01S
AKRON-CANTON   MOCLDY    55  48  77 NE6       30.00S
WOOSTER        NOT AVBL
MANSFIELD      CLOUDY    56  49  77 NE5       30.01R
YOUNGSTOWN     PTCLDY    54  49  83 NE5       30.00S
$$

OHZ042-051>053-060>062-070>072-077>081-180300-
  SOUTHWEST OHIO

CITY           SKY/WX    TMP DP  RH WIND       PRES   REMARKS
CINC-COVINGTON PTCLDY    56  50  80 NW3       30.00R
CINC-LUNKEN    CLEAR     53  52  96 CALM      30.01R
HAMILTON       CLEAR     50  49  96 CALM      30.01R
DAYTON         NOT AVBL
WRIGHT-PAT AFB CLEAR     55  49  83 CALM      30.00R
DAYTON GENERAL CLEAR     54  49  83 CALM      30.00R
WILMINGTON     CLEAR     51  48  89 NE5       30.00S
$$

OHZ036-037-039>041-045>050-054>059-063>069-073>076-082>088-180300-
  CENTRAL AND SOUTHEAST OHIO

CITY           SKY/WX    TMP DP  RH WIND       PRES   REMARKS
COLUMBUS       PTCLDY    60  48  64 CALM      29.99R
OSU AIRPORT    CLEAR     56  47  71 CALM      30.00R
BOLTON FIELD   NOT AVBL
RICKENBACK AFB NOT AVBL
NEWARK         CLEAR     49  47  93 CALM      29.99S FOG
MARION         CLEAR     54  47  77 CALM      30.00S
LANCASTER      CLEAR     52  49  89 CALM      30.00R
ZANESVILLE     CLEAR     56  50  80 CALM      29.99R
NEW PHILLY     CLEAR     52  50  93 CALM      30.00S
$$


USA.gov is the U.S. government's official web portal to all federal, state and local government web resources and services.